Wind_Speed
13 12 10 9 8 7 6 5 4 3 3 2 2 4 6 7 6 6 5 5 6 7 8 7 7 6 4 4 5 4 4 3 2 2 2 2 2 2 2 2 3 3 3 4
15 13 12 11 10 9 8 7 6 6 6 6 5 4 5 6 6 6 6 5 5 6 6 6 7 7 6 5 5 5 4 2 2 1 2 2 2 3 3 3 4 4 5 5
16 14 13 12 11 11 11 9 8 8 8 8 7 6 7 7 7 7 7 6 5 4 5 6 6 6 5 5 5 5 5 3 1 1 2 3 3 4 4 5 5 5 6 6
18 16 15 15 14 13 12 10 10 10 10 9 9 8 8 8 8 8 7 6 5 5 6 6 6 6 5 5 5 5 5 4 3 3 3 4 5 5 6 7 7 7 7 7
18 17 17 16 15 14 13 12 11 11 10 11 10 10 9 8 8 8 8 7 6 7 7 6 6 7 6 6 5 5 5 5 6 6 5 6 7 7 8 8 8 8 8 8
20 19 19 18 17 16 14 14 13 12 12 12 11 11 10 9 9 10 10 9 8 8 7 7 7 7 7 7 6 6 6 6 7 7 8 8 8 9 9 10 9 9 9 9
20 20 19 19 19 18 16 15 14 14 14 13 13 13 11 11 11 11 11 10 10 9 9 9 8 8 7 7 8 7 7 7 7 8 9 9 10 10 10 10 10 10 10 10
21 20 20 20 20 19 18 17 16 16 16 15 14 14 13 12 12 12 11 11 11 11 11 11 10 10 8 8 8 8 8 8 8 9 10 10 11 12 12 11 11 11 12 11
21 21 20 21 21 20 19 19 18 18 18 18 17 16 15 14 13 13 12 12 12 12 13 13 12 11 10 9 8 9 9 9 9 10 10 12 12 13 13 13 13 13 14 14
22 22 22 22 23 23 22 21 20 21 21 21 20 19 18 15 15 14 14 14 14 14 14 14 14 11 11 12 12 12 11 11 11 12 13 13 13 14 15 14 15 15 15 15
25 24 24 25 25 24 24 23 23 23 23 23 24 21 19 17 16 15 15 15 14 15 14 15 14 14 14 15 15 15 14 13 14 14 15 16 16 16 16 16 17 17 17 16
26 26 26 26 26 26 25 25 25 25 25 25 25 23 21 19 18 17 17 17 17 16 15 15 15 16 16 17 17 17 16 15 16 16 17 17 18 18 17 17 17 17 18 18
28 28 27 27 27 27 27 26 25 26 26 26 25 23 22 21 20 20 20 19 19 18 17 17 17 18 18 19 18 17 17 17 17 18 19 19 19 19 19 19 19 19 20 19
29 30 30 29 29 28 28 27 27 27 28 27 26 23 22 22 22 23 22 21 21 20 20 19 19 19 20 20 19 19 19 20 20 20 21 21 20 20 21 21 21 20 20 19
31 31 31 31 29 29 29 29 28 28 28 28 26 24 23 23 23 23 23 23 22 22 22 22 22 21 21 21 21 21 21 22 22 22 22 22 23 22 22 22 22 22 21 21
31 32 31 31 29 29 29 29 29 29 28 28 27 26 25 24 23 24 25 25 24 24 24 24 24 24 24 24 24 23 23 24 24 24 24 24 24 24 23 22 23 23 23 23
31 31 31 30 29 29 29 27 28 27 27 27 27 26 26 25 24 25 25 25 25 25 25 25 25 26 26 26 26 25 25 25 25 25 24 24 24 24 24 24 25 25 24 24
31 30 31 30 29 30 27 26 26 26 26 26 26 26 26 25 25 25 25 26 26 26 26 26 26 26 27 27 27 27 27 27 26 26 25 25 26 26 26 26 26 26 27 27
32 31 32 32 31 30 27 27 27 27 27 26 27 26 26 26 26 25 26 26 26 26 26 26 26 27 28 28 28 27 27 28 27 26 27 26 27 27 28 28 28 28 29 29
32 31 32 32 32 30 27 26 27 27 28 26 27 27 27 26 26 25 25 26 26 26 26 26 26 27 27 26 26 27 27 27 27 27 28 28 28 28 29 29 29 29 29 30
33 33 32 32 32 31 28 27 26 27 26 25 26 26 26 25 25 24 25 26 27 27 27 27 27 27 26 26 27 27 27 27 27 27 28 29 29 29 30 30 30 30 30 31
34 34 32 32 32 32 29 28 27 27 26 26 26 25 25 25 25 25 26 26 26 26 26 27 27 27 27 26 26 27 27 28 28 28 29 30 30 31 31 31 30 30 31 32
33 33 32 32 32 31 30 28 28 27 26 26 25 24 24 24 24 24 25 24 25 26 27 27 27 27 27 27 27 28 27 28 29 29 29 29 30 30 31 31 31 31 31 32
31 31 31 31 31 31 30 29 29 28 27 27 26 26 25 24 23 23 23 24 25 26 26 26 26 25 25 26 27 28 27 28 29 29 30 30 31 31 31 31 32 32 32 32
29 30 31 31 31 31 31 29 28 28 28 28 27 27 26 25 24 24 24 25 25 25 25 25 26 26 26 26 26 27 28 28 28 29 30 31 31 32 32 32 32 32 32 32
30 30 31 30 30 31 30 30 29 28 28 28 28 27 26 26 26 25 25 25 26 26 26 26 27 27 26 27 27 27 28 29 29 29 30 30 32 32 33 33 33 32 31 31
Wind_Direction
222 222 227 231 227 223 224 231 235 260 264 279 331 351 355 1 2 3 1 5 13 18 25 27 29 33 44 37 34 36 39 51 54 53 51 42 28 20 12 359 342 332 326 315
224 224 225 231 235 234 233 236 243 260 266 277 292 313 330 335 337 337 340 341 352 9 16 15 23 27 32 26 24 25 18 15 32 18 16 17 5 360 353 341 332 329 324 314
227 228 230 234 239 238 240 238 243 258 264 275 290 296 307 308 315 319 322 325 337 352 358 2 4 2 9 12 7 6 6 355 339 332 323 324 328 326 325 314 313 313 315 311
228 231 231 234 240 242 239 242 250 257 266 275 288 292 297 297 304 309 308 311 317 323 332 338 340 343 345 353 346 348 357 350 336 315 304 299 303 301 305 303 301 302 304 304
229 232 231 232 236 239 237 241 248 256 263 268 282 290 291 294 300 299 299 303 308 311 315 317 323 324 321 325 326 330 335 327 326 324 307 311 303 299 298 300 300 300 300 299
230 232 232 232 234 238 241 245 251 256 261 268 281 287 289 289 292 293 290 294 303 307 311 310 308 308 310 314 312 304 313 309 307 309 305 304 303 295 295 295 295 295 296 296
230 233 233 233 234 238 243 246 251 259 265 272 278 280 285 286 286 289 287 290 298 301 300 300 304 305 303 306 305 302 307 299 294 295 295 300 298 294 291 295 293 294 292 292
232 233 236 238 238 240 245 248 255 264 269 270 272 278 285 286 284 289 287 287 295 296 294 294 293 293 293 298 304 305 302 297 292 294 294 298 298 293 290 289 290 291 288 289
235 235 235 238 239 242 247 251 256 263 269 272 272 276 279 282 284 286 285 286 287 287 288 289 287 291 294 296 301 303 303 300 293 294 295 296 297 296 295 292 288 288 287 286
238 237 233 236 240 244 248 251 256 262 269 271 273 276 279 277 283 283 283 285 284 283 284 288 287 291 297 296 295 293 300 303 298 292 293 295 293 295 294 292 291 288 289 289
239 240 236 235 238 243 246 251 257 263 267 271 274 277 281 275 277 281 284 286 284 283 279 282 283 286 292 295 295 298 298 298 299 296 291 293 293 291 289 288 287 288 289 288
239 241 239 237 239 242 246 252 257 261 266 270 273 278 278 273 274 278 281 284 285 284 279 280 281 283 287 290 293 294 293 293 295 296 293 291 290 289 285 282 282 284 283 286
238 240 240 240 241 244 247 251 256 260 264 267 272 277 278 274 273 276 280 283 283 282 280 282 286 288 287 289 289 289 290 291 290 290 290 289 288 285 281 278 278 280 282 285
238 242 244 245 247 249 250 252 256 259 261 265 268 271 273 274 274 276 278 281 282 279 278 280 283 285 286 288 289 287 286 287 287 287 287 286 285 284 281 281 282 280 281 281
241 244 246 248 250 250 251 252 255 258 261 263 265 266 270 273 275 276 277 279 279 278 278 280 280 281 282 282 282 284 286 285 285 286 285 284 283 281 278 278 280 283 285 280
243 246 247 250 251 251 251 251 253 257 259 262 264 266 269 271 273 274 275 278 279 279 279 280 280 279 279 280 280 280 285 285 284 284 284 283 284 282 279 278 279 281 283 284
244 246 248 250 252 252 250 251 253 256 260 262 264 267 270 271 273 275 273 274 276 277 278 279 280 279 279 281 282 280 280 284 286 285 283 281 282 282 280 280 280 280 282 283
244 246 248 250 251 252 253 252 253 256 258 262 265 267 269 271 273 274 274 275 276 277 277 277 278 280 281 281 282 280 282 284 285 283 280 279 280 280 280 281 281 280 280 282
244 246 250 252 252 255 255 254 254 257 259 261 265 266 268 269 271 273 276 277 277 277 276 275 275 278 280 280 282 284 286 286 285 281 280 280 280 280 280 280 281 280 283 283
244 246 250 251 252 253 254 255 257 259 260 263 266 266 267 269 271 274 274 275 277 276 275 276 278 281 282 283 284 285 288 289 289 287 285 283 283 281 280 282 284 283 282 283
244 246 247 249 250 251 253 255 256 258 262 264 265 266 266 270 274 273 273 274 276 275 276 277 279 282 282 283 284 285 287 287 288 288 288 286 286 285 283 283 283 283 281 281
244 245 245 247 248 250 253 255 256 259 262 262 265 267 269 271 271 270 271 275 277 276 276 278 280 280 281 283 285 286 287 287 288 288 287 287 286 285 285 282 282 282 282 281
243 243 243 246 247 250 253 255 257 260 264 267 269 270 271 272 272 271 271 273 275 277 277 278 279 280 282 283 285 287 287 287 288 289 289 287 286 287 286 284 284 284 283 284
242 241 242 244 246 248 251 255 256 258 262 265 267 269 271 273 273 272 272 272 274 277 279 280 279 280 283 284 285 286 286 286 288 289 289 289 288 289 288 287 287 287 286 285
241 242 243 245 247 249 250 253 255 257 261 264 266 269 273 274 273 272 271 273 276 278 279 279 279 280 284 286 287 286 287 289 290 290 290 289 289 289 289 289 289 288 288 287
241 242 242 244 247 249 251 254 255 257 262 264 266 270 271 272 272 271 271 272 275 278 279 279 279 280 282 285 286 287 289 289 289 290 289 288 288 290 290 290 289 288 288 287
Height
5903 5905 5906 5907 5908 5909 5909 5909 5909 5910 5909 5909 5909 5908 5908 5907 5907 5906 5905 5904 5903 5902 5901 5900 5898 5897 5896 5896 5895 5894 5894 5893 5893 5893 5893 5893 5893 5892 5892 5891 5891 5890 5890 5889
5902 5903 5905 5905 5906 5907 5908 5908 5908 5909 5908 5908 5908 5908 5907 5907 5906 5906 5905 5904 5903 5902 5901 5900 5899 5898 5897 5896 5895 5894 5894 5893 5893 5893 5893 5892 5892 5892 5891 5891 5890 5889 5889 5888
5899 5902 5902 5903 5904 5906 5906 5907 5907 5907 5907 5907 5907 5907 5907 5906 5906 5905 5904 5904 5903 5902 5901 5899 5899 5898 5897 5896 5895 5894 5893 5892 5892 5892 5892 5892 5891 5891 5890 5890 5889 5888 5888 5887
5897 5899 5900 5901 5903 5904 5904 5905 5905 5905 5906 5906 5906 5906 5906 5905 5905 5904 5903 5903 5902 5901 5900 5899 5898 5897 5896 5895 5894 5893 5893 5892 5891 5891 5890 5890 5890 5890 5889 5888 5887 5886 5886 5885
5894 5896 5898 5899 5901 5902 5903 5903 5903 5903 5903 5904 5904 5904 5905 5904 5903 5903 5902 5902 5901 5900 5899 5898 5897 5896 5895 5894 5893 5892 5892 5891 5890 5889 5889 5888 5888 5888 5887 5886 5885 5884 5884 5883
5891 5893 5895 5896 5898 5899 5900 5901 5901 5901 5901 5902 5902 5902 5902 5902 5902 5901 5901 5900 5899 5898 5897 5896 5895 5894 5894 5893 5892 5890 5890 5889 5888 5888 5887 5887 5886 5885 5885 5884 5883 5882 5881 5880
5887 5889 5891 5893 5894 5896 5897 5898 5899 5898 5899 5899 5900 5899 5900 5900 5900 5899 5898 5898 5897 5896 5896 5894 5893 5892 5892 5891 5890 5889 5887 5887 5886 5886 5885 5885 5884 5883 5882 5881 5880 5879 5878 5877
5883 5886 5887 5889 5891 5893 5893 5895 5896 5896 5896 5897 5897 5896 5898 5898 5897 5896 5896 5896 5895 5894 5893 5892 5891 5890 5889 5888 5887 5886 5885 5884 5883 5883 5882 5882 5881 5880 5879 5879 5878 5877 5875 5874
5879 5882 5884 5885 5887 5889 5890 5891 5892 5893 5892 5893 5893 5894 5895 5895 5894 5894 5893 5893 5892 5892 5891 5890 5889 5887 5887 5886 5885 5884 5883 5882 5881 5880 5879 5879 5878 5877 5876 5875 5874 5873 5872 5870
5874 5877 5880 5881 5883 5884 5886 5887 5888 5888 5888 5888 5889 5890 5891 5891 5891 5891 5891 5890 5889 5888 5888 5887 5886 5885 5884 5883 5881 5880 5879 5879 5878 5877 5876 5875 5875 5874 5873 5872 5871 5869 5868 5867
5869 5872 5874 5876 5877 5879 5881 5882 5883 5884 5884 5885 5885 5888 5888 5887 5887 5887 5887 5886 5885 5885 5884 5884 5883 5882 5880 5880 5878 5877 5876 5875 5874 5873 5872 5871 5871 5870 5868 5868 5867 5865 5864 5863
5863 5866 5868 5870 5873 5874 5876 5877 5879 5880 5880 5880 5880 5884 5882 5882 5883 5883 5883 5882 5881 5881 5880 5880 5879 5878 5877 5876 5875 5873 5872 5871 5870 5869 5868 5867 5866 5865 5864 5863 5862 5861 5859 5858
5857 5859 5861 5864 5868 5869 5869 5871 5873 5874 5874 5874 5875 5879 5877 5877 5877 5877 5877 5877 5876 5876 5875 5875 5874 5874 5872 5871 5870 5869 5868 5867 5866 5865 5863 5862 5860 5859 5858 5857 5856 5855 5854 5853
5851 5853 5856 5858 5860 5862 5863 5865 5866 5868 5868 5869 5870 5871 5871 5871 5872 5872 5872 5871 5871 5870 5870 5869 5869 5868 5867 5866 5865 5864 5863 5862 5860 5859 5858 5856 5855 5854 5852 5851 5850 5849 5848 5847
5843 5845 5848 5851 5854 5855 5857 5859 5860 5861 5862 5863 5864 5865 5866 5866 5866 5866 5865 5865 5864 5864 5864 5863 5863 5862 5862 5861 5860 5858 5857 5856 5855 5853 5851 5850 5849 5848 5846 5846 5845 5844 5843 5842
5835 5838 5841 5843 5846 5848 5850 5852 5853 5855 5856 5857 5858 5859 5860 5860 5860 5859 5859 5859 5858 5858 5857 5857 5856 5856 5855 5854 5853 5852 5851 5849 5848 5846 5845 5844 5842 5841 5840 5839 5838 5837 5837 5836
5828 5831 5833 5836 5838 5840 5842 5845 5846 5848 5849 5851 5851 5853 5852 5852 5853 5853 5852 5852 5852 5851 5850 5850 5849 5848 5848 5847 5846 5844 5844 5842 5840 5839 5838 5836 5835 5834 5833 5832 5831 5830 5830 5829
5821 5823 5825 5828 5831 5832 5838 5839 5840 5841 5843 5844 5845 5845 5845 5846 5846 5846 5845 5845 5845 5844 5843 5842 5842 5841 5840 5839 5838 5837 5836 5834 5832 5831 5830 5828 5828 5827 5826 5825 5824 5822 5822 5821
5814 5816 5818 5820 5822 5825 5830 5832 5833 5834 5836 5837 5838 5839 5839 5838 5839 5839 5838 5837 5837 5836 5835 5835 5834 5834 5833 5832 5830 5829 5828 5826 5824 5823 5822 5820 5819 5819 5818 5817 5816 5815 5814 5813
5806 5809 5811 5813 5815 5818 5823 5825 5826 5828 5829 5830 5831 5831 5831 5831 5832 5832 5831 5830 5829 5829 5828 5827 5827 5825 5824 5823 5823 5822 5820 5819 5817 5816 5814 5813 5812 5811 5810 5809 5808 5807 5806 5805
5798 5800 5803 5805 5808 5811 5815 5817 5819 5821 5823 5823 5823 5824 5824 5824 5825 5825 5823 5823 5822 5821 5820 5819 5819 5818 5817 5816 5815 5814 5812 5811 5810 5808 5807 5805 5804 5803 5802 5801 5800 5799 5798 5796
5790 5793 5796 5798 5801 5806 5808 5810 5812 5814 5815 5816 5816 5816 5817 5817 5817 5816 5816 5815 5815 5814 5813 5812 5811 5810 5809 5807 5807 5806 5805 5803 5801 5800 5798 5797 5795 5794 5793 5792 5791 5790 5788 5787
5782 5786 5788 5792 5796 5799 5800 5803 5805 5806 5807 5809 5809 5809 5809 5810 5809 5809 5808 5808 5807 5806 5805 5804 5803 5802 5801 5800 5799 5798 5797 5795 5794 5792 5790 5788 5787 5785 5784 5783 5782 5781 5779 5778
5774 5777 5781 5784 5787 5791 5793 5795 5797 5799 5800 5801 5802 5802 5802 5802 5802 5801 5801 5800 5799 5798 5797 5797 5796 5794 5793 5792 5791 5790 5789 5787 5785 5784 5782 5780 5778 5777 5776 5774 5773 5771 5770 5768
5767 5770 5773 5776 5780 5783 5785 5788 5790 5791 5792 5793 5794 5795 5795 5795 5794 5794 5793 5793 5792 5791 5790 5788 5787 5786 5785 5784 5782 5781 5780 5779 5777 5775 5773 5772 5770 5768 5767 5765 5763 5762 5760 5758
5760 5763 5766 5769 5772 5775 5778 5780 5782 5784 5785 5786 5786 5787 5787 5787 5787 5786 5785 5784 5784 5783 5781 5780 5779 5778 5777 5776 5774 5773 5771 5770 5768 5766 5764 5763 5761 5759 5757 5755 5754 5752 5751 5749